Baileyville, IL

1:52 PM CDT on July 27, 2016 (GMT -0500)
Albertus

Weather History for KFEP - December, 2012

Change the Weather History Date:

Wednesday, December 12, 2012

  Actual Average Record
Temperature  
Mean Temperature 34 °F -  
Max Temperature 44 °F 33 °F 53 °F (1979)
Min Temperature 25 °F 13 °F -10 °F (1976)
Degree Days  
Heating Degree Days 30    
Moisture  
Dew Point 26 °F    
Average Humidity 71    
Maximum Humidity 84    
Minimum Humidity 48    
Precipitation  
Precipitation 0.00 in - - ()
Sea Level Pressure  
Sea Level Pressure 30.18 in    
Wind  
Wind Speed 12 mph (South)    
Max Wind Speed 22 mph    
Max Gust Speed 30 mph    
Visibility 10 miles    
Events      
Averages and records for this station are not official NWS values.
T = Trace of Precipitation, MM = Missing Value Source: NWS Daily Summary

Daily Weather History Graph

Daily Weather History Graph

Search for Another Location

Airport or City:

Trip Planner

Search our weather history database for the weather conditions in past years. The results will help you decide how hot, cold, wet, or windy it might be!

Date:

Astronomy

Dec. 12, 2012 Rise Set
Actual Time 7:18 AM CST 4:26 PM CST
Civil Twilight 6:46 AM CST 4:58 PM CST
Nautical Twilight 6:11 AM CST 5:33 PM CST
Astronomical Twilight 5:37 AM CST 6:07 PM CST
Moon 6:22 AM CST (12/12) 4:03 PM CST (12/12)
Length of Visible Light 10h 11m
Length of Day
9h 08m
Waning Crescent, 1% of the Moon is Illuminated
Dec 12
Waning Crescent
Dec 13
New
Dec 19
First Quarter
Dec 28
Full
Jan 4
Last Quarter

Hourly Weather History & Observations

Time (CST) Temp. Windchill Dew Point Humidity Pressure Visibility Wind Dir Wind Speed Gust Speed Precip Events Conditions
12:15 AM 33.8 °F 26.4 °F 27.5 °F 78% 30.12 in 10.0 mi South 9.2 mph - N/A   Overcast
12:35 AM 33.8 °F 27.0 °F 27.5 °F 78% 30.13 in 10.0 mi South 8.1 mph - N/A   Overcast
12:55 AM 31.5 °F 23.5 °F 25.3 °F 78% 30.13 in 10.0 mi South 9.2 mph - N/A   Overcast
1:15 AM 31.5 °F 24.2 °F 25.0 °F 77% 30.13 in 10.0 mi South 8.1 mph - N/A   Overcast
1:35 AM 31.6 °F 24.4 °F 25.0 °F 76% 30.13 in 10.0 mi South 8.1 mph - N/A   Overcast
1:55 AM 31.1 °F 26.4 °F 25.2 °F 79% 30.14 in 10.0 mi South 4.6 mph - N/A   Overcast
2:15 AM 28.8 °F 21.7 °F 23.9 °F 82% 30.14 in 10.0 mi South 6.9 mph - N/A   Overcast
2:35 AM 28.4 °F 23.3 °F 23.2 °F 81% 30.15 in 10.0 mi South 4.6 mph - N/A   Scattered Clouds
2:55 AM 27.5 °F 20.2 °F 22.8 °F 83% 30.15 in 10.0 mi South 6.9 mph - N/A   Clear
3:15 AM 27.1 °F 19.7 °F 22.5 °F 83% 30.15 in 10.0 mi South 6.9 mph - N/A   Clear
3:35 AM 25.3 °F 17.6 °F 21.2 °F 84% 30.14 in 10.0 mi SSE 6.9 mph - N/A   Clear
3:55 AM 26.2 °F 17.1 °F 22.1 °F 84% 30.14 in 10.0 mi South 9.2 mph - N/A   Clear
4:15 AM 26.2 °F 16.4 °F 22.1 °F 84% 30.14 in 10.0 mi South 10.4 mph - N/A   Clear
4:35 AM 25.7 °F 17.1 °F 21.4 °F 84% 30.15 in 10.0 mi South 8.1 mph - N/A   Clear
4:55 AM 27.0 °F 17.3 °F 22.1 °F 82% 30.15 in 10.0 mi South 10.4 mph - N/A   Clear
5:15 AM 26.8 °F 16.5 °F 22.1 °F 83% 30.16 in 10.0 mi South 11.5 mph - N/A   Clear
5:35 AM 26.8 °F 16.5 °F 22.1 °F 83% 30.16 in 10.0 mi South 11.5 mph - N/A   Clear
5:55 AM 26.6 °F 16.2 °F 21.9 °F 82% 30.16 in 10.0 mi South 11.5 mph - N/A   Clear
6:15 AM 26.6 °F 16.2 °F 21.9 °F 82% 30.17 in 10.0 mi South 11.5 mph - N/A   Clear
6:35 AM 27.0 °F 16.7 °F 21.9 °F 81% 30.18 in 10.0 mi South 11.5 mph - N/A   Clear
6:55 AM 27.1 °F 16.9 °F 21.9 °F 81% 30.18 in 10.0 mi South 11.5 mph - N/A   Clear
7:15 AM 27.1 °F 16.4 °F 21.9 °F 81% 30.19 in 10.0 mi South 12.7 mph - N/A   Clear
7:35 AM 27.5 °F 16.8 °F 22.1 °F 80% 30.19 in 10.0 mi South 12.7 mph - N/A   Clear
7:55 AM 28.8 °F 17.9 °F 23.0 °F 79% 30.19 in 10.0 mi South 13.8 mph - N/A   Clear
8:15 AM 28.8 °F 17.5 °F 22.5 °F 77% 30.19 in 10.0 mi South 15.0 mph - N/A   Clear
8:35 AM 31.5 °F 21.4 °F 23.7 °F 73% 30.20 in 10.0 mi South 13.8 mph - N/A   Clear
8:55 AM 33.8 °F 24.3 °F 24.8 °F 70% 30.21 in 10.0 mi South 13.8 mph 19.6 mph N/A   Clear
9:15 AM 33.8 °F 24.3 °F 23.9 °F 67% 30.21 in 10.0 mi South 13.8 mph - N/A   Clear
9:35 AM 36.1 °F 27.3 °F 25.7 °F 66% 30.22 in 10.0 mi South 13.8 mph - N/A   Clear
9:55 AM 38.3 °F 30.1 °F 27.1 °F 64% 30.22 in 10.0 mi South 13.8 mph - N/A   Clear
10:15 AM 38.7 °F 30.5 °F 27.1 °F 63% 30.23 in 10.0 mi South 13.8 mph 20.7 mph N/A   Clear
10:35 AM 38.7 °F 30.5 °F 26.1 °F 61% 30.23 in 10.0 mi South 13.8 mph 20.7 mph N/A   Clear
10:55 AM 39.6 °F 30.6 °F 26.2 °F 59% 30.23 in 10.0 mi South 17.3 mph 20.7 mph N/A   Clear
11:15 AM 41.2 °F 32.1 °F 27.0 °F 57% 30.23 in 10.0 mi South 19.6 mph 25.3 mph N/A   Clear
11:35 AM 41.2 °F 31.9 °F 26.2 °F 55% 30.22 in 10.0 mi South 20.7 mph 27.6 mph N/A   Clear
11:55 AM 41.9 °F 32.8 °F 25.7 °F 53% 30.22 in 10.0 mi South 20.7 mph 26.5 mph N/A   Clear
12:15 PM 43.7 °F 35.4 °F 27.5 °F 53% 30.22 in 10.0 mi South 19.6 mph 25.3 mph N/A   Clear
12:35 PM 43.7 °F 35.7 °F 27.0 °F 52% 30.22 in 10.0 mi South 18.4 mph 26.5 mph N/A   Clear
12:55 PM 44.6 °F 36.1 °F 26.6 °F 49% 30.21 in 10.0 mi South 21.9 mph 29.9 mph N/A   Clear
1:15 PM 44.6 °F 36.6 °F 27.0 °F 50% 30.20 in 10.0 mi South 19.6 mph 25.3 mph N/A   Clear
1:35 PM 44.6 °F 36.1 °F 26.6 °F 49% 30.19 in 10.0 mi South 21.9 mph 25.3 mph N/A   Clear
1:55 PM 44.6 °F 36.6 °F 25.7 °F 48% 30.19 in 10.0 mi South 19.6 mph 26.5 mph N/A   Clear
2:15 PM 44.8 °F 37.1 °F 26.8 °F 49% 30.18 in 10.0 mi SSE 18.4 mph 25.3 mph N/A   Clear
2:35 PM 44.2 °F 37.0 °F 27.0 °F 51% 30.18 in 10.0 mi SSE 16.1 mph 27.6 mph N/A   Clear
2:55 PM 44.6 °F 36.9 °F 26.6 °F 49% 30.18 in 10.0 mi SSE 18.4 mph 25.3 mph N/A   Clear
3:15 PM 43.7 °F 35.7 °F 27.1 °F 52% 30.18 in 10.0 mi SSE 18.4 mph 23.0 mph N/A   Clear
3:35 PM 43.7 °F 36.3 °F 27.5 °F 53% 30.18 in 10.0 mi SSE 16.1 mph - N/A   Clear
3:55 PM 41.2 °F 33.4 °F 27.0 °F 57% 30.17 in 10.0 mi SSE 15.0 mph - N/A   Clear
4:15 PM 40.5 °F 32.8 °F 28.0 °F 61% 30.18 in 10.0 mi SE 13.8 mph - N/A   Clear
4:35 PM 38.7 °F 30.9 °F 28.4 °F 67% 30.18 in 10.0 mi SE 12.7 mph - N/A   Clear
4:55 PM 38.7 °F 30.9 °F 29.3 °F 69% 30.18 in 10.0 mi SE 12.7 mph - N/A   Clear
5:15 PM 38.7 °F 30.9 °F 29.7 °F 70% 30.18 in 10.0 mi SSE 12.7 mph - N/A   Clear
5:35 PM 38.7 °F 31.4 °F 29.8 °F 71% 30.18 in 10.0 mi SSE 11.5 mph - N/A   Clear
5:55 PM 36.1 °F 27.7 °F 27.7 °F 71% 30.18 in 10.0 mi SSE 12.7 mph - N/A   Clear
6:15 PM 36.1 °F 27.7 °F 28.4 °F 73% 30.18 in 10.0 mi SSE 12.7 mph - N/A   Clear
6:35 PM 36.1 °F 26.9 °F 27.5 °F 71% 30.18 in 10.0 mi SSE 15.0 mph - N/A   Clear
6:55 PM 36.1 °F 26.9 °F 27.5 °F 71% 30.18 in 10.0 mi SSE 15.0 mph - N/A   Clear
7:15 PM 36.1 °F 26.9 °F 27.5 °F 71% 30.18 in 10.0 mi SSE 15.0 mph - N/A   Clear
7:35 PM 35.6 °F 26.2 °F 28.4 °F 75% 30.18 in 10.0 mi SSE 15.0 mph 20.7 mph N/A   Clear
7:55 PM 36.0 °F 25.6 °F 28.8 °F 75% 30.19 in 10.0 mi SSE 18.4 mph - N/A   Clear
8:15 PM 36.1 °F 26.5 °F 29.1 °F 76% 30.19 in 10.0 mi SSE 16.1 mph - N/A   Clear
8:35 PM 36.1 °F 26.5 °F 28.9 °F 75% 30.19 in 10.0 mi SSE 16.1 mph - N/A   Clear
8:55 PM 36.1 °F 26.5 °F 29.1 °F 76% 30.19 in 10.0 mi SSE 16.1 mph - N/A   Clear
9:15 PM 36.0 °F 26.3 °F 29.3 °F 77% 30.19 in 10.0 mi SSE 16.1 mph - N/A   Clear
9:35 PM 34.9 °F 24.6 °F 28.9 °F 79% 30.19 in 10.0 mi South 17.3 mph 21.9 mph N/A   Clear
9:55 PM 34.5 °F 23.8 °F 29.1 °F 81% 30.19 in 10.0 mi South 18.4 mph - N/A   Clear
10:15 PM 34.7 °F 24.0 °F 29.1 °F 80% 30.19 in 10.0 mi South 18.4 mph - N/A   Clear
10:35 PM 34.2 °F 23.3 °F 28.6 °F 80% 30.20 in 10.0 mi South 18.4 mph - N/A   Clear
10:55 PM 35.6 °F 25.5 °F 28.4 °F 75% 30.20 in 10.0 mi South 17.3 mph - N/A   Clear
11:15 PM 34.0 °F 23.4 °F 28.4 °F 80% 30.20 in 10.0 mi SSE 17.3 mph - N/A   Clear
11:35 PM 34.5 °F 23.8 °F 28.4 °F 78% 30.20 in 10.0 mi South 18.4 mph 23.0 mph N/A   Clear
11:55 PM 34.9 °F 23.9 °F 28.2 °F 77% 30.19 in 10.0 mi South 19.6 mph 24.2 mph N/A   Clear